Weather in Tit-Ary

Russia / Sakha (Yakutia) Republic     62°45′17″N   131°57′33″E
temp.,
°C
wind,
m/s
gust,
m/s
humid.,
%
clouds,
%
prec.,
mm/h
press.,
hPa
HPBL,
m
15 may, sat
sat1500:00+5e245713 0.0 101062
03:00+3se22615 0.0 101030
06:00+6ese23516 0.0 1010218
09:00+12se23375 0.0 1008996
12:00+16sw11248 0.0 10062201
15:00+17w01215 0.0 10052577
18:00+15ese122585 0.0 10042627
21:00+9ese224520 0.0 100421
16 may, sun
sun1600:00+7ese39815 0.0 1004205
03:00+4ese27924 0.0 1004148
06:00+7se36725 0.0 1004331
09:00+12se454918 0.0 10021474
12:00+12ese3444100 0.1 10001801
15:00+13se3544100 0.1 9991963
18:00+12se455796 0.1 9981207
21:00+8sse257096 0.1 999161
17 may, mon
mon1700:00+6ese2675100 0.0 998144
03:00+6se2777100 0.0 997246
06:00+7sse3765100 0.0 997462
09:00+9sse4647100 0.0 9961140
12:00+12sse3542100 0.0 9951787
15:00+11sse2348100 0.0 9951631
18:00+11se2250100 0.0 9951218
21:00+7wnw4781100 0.2 996303
18 may, tue
tue1800:00+5nw2588100 0.0 996260
03:00+3wnw3693100 0.0 997366
06:00+2wnw3696100 0.1 998444
09:00+2wnw4895100 0.2 999575
12:00+5w5661100 0.1 9991200
15:00+6w5648100 0.1 10001605
18:00+5wsw4657100 0.0 10011206
21:00+3sw2566100 0.1 1002103
19 may, wed
wed1900:000wsw257536 0.0 1004108
03:00−3sw23805 0.0 100562
06:00+2wsw25540 0.0 1005310
09:00+6wsw34315 0.0 10052241
12:00+8wsw3523100 0.0 10052808
15:00+9w3421100 0.0 10042970
18:00+9w342364 0.0 10052606
21:00+3wnw224349 0.0 100710